TimeEST,TemperatureF,Dew PointF,Humidity,Sea Level PressureIn,VisibilityMPH,Wind Direction,Wind SpeedMPH,Gust SpeedMPH,PrecipitationIn,Events,Conditions,WindDirDegrees,DateUTC
12:01 AM,26.6,26.6,100,29.41,6.0,SSE,6.9,-,0.00,,Overcast,160,2012-12-11 05:01:00
12:12 AM,26.6,26.6,100,29.41,10.0,South,6.9,-,0.00,,Overcast,170,2012-12-11 05:12:00
12:53 AM,27.0,26.1,96,29.44,10.0,South,6.9,-,0.00,,Overcast,180,2012-12-11 05:53:00
1:43 AM,26.6,26.6,100,29.42,10.0,SSW,4.6,-,N/A,,Overcast,200,2012-12-11 06:43:00
1:53 AM,27.0,26.1,96,29.47,10.0,SSW,4.6,-,N/A,,Overcast,210,2012-12-11 06:53:00
2:12 AM,26.6,26.6,100,29.44,10.0,SW,4.6,-,N/A,,Overcast,220,2012-12-11 07:12:00
2:21 AM,26.6,26.6,100,29.43,10.0,SW,4.6,-,N/A,,Overcast,230,2012-12-11 07:21:00
2:53 AM,27.0,26.1,96,29.49,10.0,SSW,3.5,-,N/A,,Overcast,210,2012-12-11 07:53:00
3:30 AM,28.4,26.6,93,29.46,8.0,NNW,13.8,18.4,0.00,Snow,Light Snow,340,2012-12-11 08:30:00
3:36 AM,28.4,26.6,93,29.47,2.5,NW,11.5,18.4,0.00,Snow,Light Snow,320,2012-12-11 08:36:00
3:39 AM,28.4,26.6,93,29.47,1.8,NNW,10.4,-,0.00,Snow,Light Snow,340,2012-12-11 08:39:00
3:42 AM,26.6,26.6,100,29.47,1.2,NNW,10.4,-,0.00,Snow,Light Snow,330,2012-12-11 08:42:00
3:53 AM,27.0,26.1,96,29.52,0.8,NNW,11.5,-,0.00,Snow,Light Snow,330,2012-12-11 08:53:00
4:00 AM,26.6,24.8,93,29.48,1.0,NNW,11.5,-,0.01,Snow,Light Snow,330,2012-12-11 09:00:00
4:09 AM,26.6,24.8,93,29.49,1.8,NNW,15.0,-,0.01,Snow,Light Snow,330,2012-12-11 09:09:00
4:15 AM,26.6,24.8,93,29.49,3.0,NNW,15.0,-,0.01,Snow,Light Snow,330,2012-12-11 09:15:00
4:53 AM,26.1,24.1,92,29.55,10.0,NW,6.9,-,0.01,,Overcast,310,2012-12-11 09:53:00
5:01 AM,24.8,23.0,93,29.52,10.0,NW,6.9,-,N/A,,Overcast,320,2012-12-11 10:01:00
5:53 AM,25.0,21.9,88,29.57,10.0,NNW,4.6,-,N/A,,Overcast,330,2012-12-11 10:53:00
6:01 AM,24.8,21.2,86,29.54,10.0,NNW,5.8,-,N/A,,Overcast,340,2012-12-11 11:01:00
6:12 AM,24.8,21.2,86,29.55,10.0,NW,5.8,-,N/A,,Overcast,320,2012-12-11 11:12:00
6:50 AM,24.8,21.2,86,29.57,10.0,NW,4.6,-,N/A,,Overcast,320,2012-12-11 11:50:00
6:53 AM,24.1,21.9,91,29.61,10.0,NW,5.8,-,N/A,,Overcast,320,2012-12-11 11:53:00
7:53 AM,24.1,21.0,88,29.64,5.0,NW,11.5,16.1,0.00,Snow,Light Snow,320,2012-12-11 12:53:00
8:21 AM,21.2,19.4,93,29.64,4.0,NW,15.0,-,0.00,Snow,Light Snow,320,2012-12-11 13:21:00
8:53 AM,21.2,17.6,86,29.66,6.0,NW,10.4,-,N/A,Snow,Light Snow,320,2012-12-11 13:53:00
9:10 AM,21.2,17.6,86,29.67,10.0,NW,10.4,-,0.00,,Overcast,320,2012-12-11 14:10:00
9:44 AM,19.4,15.8,86,29.68,10.0,NW,15.0,-,0.00,,Overcast,320,2012-12-11 14:44:00
9:53 AM,19.9,16.0,85,29.71,10.0,NNW,12.7,-,0.00,,Mostly Cloudy,330,2012-12-11 14:53:00
10:53 AM,21.0,17.1,85,29.73,10.0,WNW,8.1,-,N/A,,Mostly Cloudy,300,2012-12-11 15:53:00
11:48 AM,21.2,15.8,80,29.71,10.0,WNW,15.0,-,N/A,,Scattered Clouds,300,2012-12-11 16:48:00
11:53 AM,19.9,15.1,81,29.75,10.0,WNW,9.2,21.9,N/A,,Partly Cloudy,300,2012-12-11 16:53:00
12:53 PM,19.9,14.0,78,29.78,10.0,WNW,13.8,-,N/A,,Partly Cloudy,300,2012-12-11 17:53:00
1:51 PM,21.2,15.8,80,29.77,10.0,WNW,10.4,-,N/A,,Mostly Cloudy,290,2012-12-11 18:51:00
1:53 PM,21.9,16.0,78,29.81,10.0,West,10.4,-,N/A,,Mostly Cloudy,280,2012-12-11 18:53:00
2:53 PM,19.9,12.9,74,29.84,10.0,WNW,8.1,-,N/A,,Mostly Cloudy,290,2012-12-11 19:53:00
3:09 PM,19.4,14.0,80,29.80,10.0,WNW,8.1,-,N/A,,Scattered Clouds,290,2012-12-11 20:09:00
3:53 PM,18.0,12.9,81,29.87,10.0,WNW,6.9,-,N/A,,Clear,300,2012-12-11 20:53:00
4:53 PM,16.0,12.0,84,29.90,10.0,WNW,9.2,-,N/A,,Clear,290,2012-12-11 21:53:00
5:53 PM,15.1,10.9,84,29.94,10.0,West,8.1,-,N/A,,Clear,280,2012-12-11 22:53:00
6:53 PM,15.1,10.9,84,29.96,10.0,NW,6.9,-,N/A,,Mostly Cloudy,310,2012-12-11 23:53:00
7:53 PM,16.0,12.0,84,29.99,10.0,NW,5.8,-,N/A,,Overcast,320,2012-12-12 00:53:00
8:53 PM,14.0,10.0,84,30.02,9.0,NNW,6.9,-,N/A,,Overcast,340,2012-12-12 01:53:00
9:53 PM,14.0,10.9,88,30.04,10.0,NW,4.6,-,N/A,,Overcast,320,2012-12-12 02:53:00
10:13 PM,14.0,10.4,86,29.99,10.0,NNW,6.9,-,N/A,,Overcast,330,2012-12-12 03:13:00
10:53 PM,14.0,10.9,88,30.05,10.0,NNW,5.8,-,N/A,,Overcast,330,2012-12-12 03:53:00
11:53 PM,14.0,10.9,88,30.07,10.0,NW,5.8,-,N/A,,Overcast,320,2012-12-12 04:53:00